Orbital Elements at Epoch 2459000.5 (2020-May-31.0) TDB
Reference: JPL 12 (heliocentric ecliptic J2000)
Element | Value | Uncertainty (1-sigma) | Units |
e | .1581546775046331 | 6.464e-08 | |
a | 2.382007650116026 | 1.4731e-08 | au |
q | 2.005281998398357 | 1.5223e-07 | au |
i | 2.883385399229708 | 4.8966e-06 | deg |
node | 33.55006673440514 | 0.00013005 | deg |
peri | 134.4455164444957 | 0.00013075 | deg |
M | 120.2503515858079 | 1.56e-05 | deg |
tp | 2458551.964306631753 (2019-Mar-09.46430663) | 5.7129e-05 | TDB |
period | 1342.805634105325 3.68 | 1.2457e-05 3.411e-08 | d yr |
n | .2680953898736493 | 2.487e-09 | deg/d |
Q | 2.758733301833695 | 1.7061e-08 | au |
|
| | Orbit Determination Parameters
Additional Information
|